Regional Weather Roundup
Issued by NWS

Home | Current Version | Previous Version | Graphics & Text | Print | Product List | Glossary On
Versions: 1 2 3 4 5 6 7 8 9 10 11 12 13 14 15 16 17 18 19 20 21 22 23 24 25 26 27 28 29 30 31 32 33 34 35 36 37 38 39 40 41 42 43 44 45 46 47 48 49 50
000
ASUS43 KDTX 230910
RWRMI
MICHIGAN HOURLY REGIONAL WEATHER ROUNDUP
NATIONAL WEATHER SERVICE DETROIT/PONTIAC MI
500 AM EDT SAT JUL 23 2016

NOTE: "FAIR" INDICATES FEW OR NO CLOUDS BELOW 12,000 FEET WITH NO
SIGNIFICANT WEATHER AND/OR OBSTRUCTION TO VISIBILITY.

MIZ047>049-052>055-059>063-066>070-074>076-081>083-231000-
SOUTHEAST LOWER MICHIGAN

CITY           SKY/WX    TMP DP  RH WIND       PRES   REMARKS
ADRIAN         CLEAR     67  67 100 CALM      30.00S
ALMA           FOG       65  65 100 S5        29.99R VSB 1
ANN ARBOR      CLEAR     66  66 100 CALM      29.98S FOG
BAD AXE        CLEAR     58  57  95 CALM      29.96S
CARO           FOG       64  63  98 CALM      29.96R VSB 1/2
DETROIT CITY   CLEAR     75  70  84 W3        29.96S
DETROIT        CLEAR     74  69  85 W3        29.98S
FLINT          CLEAR     68  65  90 SW3       29.98R FOG
GROSSE ILE     CLEAR     74  69  86 NW5       29.96S
HOWELL         CLEAR     68  67  97 W5        29.99S

CITY           SKY/WX    TMP DP  RH WIND       PRES   REMARKS
JACKSON        CLEAR     68  68 100 CALM      30.00S FOG
LAMBERTVILLE   CLEAR     71  69  93 CALM      29.99S
LANSING        CLEAR     69  66  90 CALM      30.00R
LAPEER         FOG       63  62  97 CALM      29.98S VSB 1
MASON          CLEAR     67  66  96 CALM      29.99F
MONROE         CLEAR     69  69  98 CALM      29.97S
MT. CLEMENS    CLEAR     72  69  90 NW6       29.94S
PONTIAC        CLEAR     71  68  90 W3        29.97F
PORT HOPE        N/A     67  61  81 SW6       29.93S
PORT HURON     FOG       64  64 100 S3        29.96S VSB 1/4
TRI CITIES     PTCLDY    70  68  93 SW5       29.97S
MIDLAND        FAIR      63  63  99 CALM      29.97R
TROY           CLEAR     75  69  82 W3        29.99S
SAGINAW HB     CLEAR     66  63  88 CALM      29.96S
$$
MIZ043>046-050>051-056>058-064>065-071>073-077>080-231000-
SOUTHWEST LOWER MICHIGAN

CITY           SKY/WX    TMP DP  RH WIND       PRES   REMARKS
BATTLE CREEK   CLEAR     64  64 100 SW3       30.00F
BENTON HARBOR  CLEAR     68  66  93 CALM      29.98F
BIG RAPIDS     CLEAR     65  65 100 CALM      29.99S
COLDWATER      FOG       66  66 100 CALM      30.00F VSB<1/4
FREMONT        FOG       64  64 100 CALM      29.99S VSB 3/4
HOLLAND        PTCLDY    64  63  96 CALM      29.99F FOG
GRAND RAPIDS   CLEAR     68  65  90 W3        30.00R FOG
IONIA          FAIR      66  64  93 SW8       29.99S FOG
KALAMAZOO      FOG       67  64  90 CALM      29.99F VSB 1/4
LUDINGTON      FOG       67  67 100 CALM      29.97S VSB 1/4
MARSHALL       FOG       67  66  98 CALM      29.99F VSB 3/4
MOUNT PLEASANT CLEAR     67  66  96 CALM      29.98R
MUSKEGON       CLEAR     69  66  90 CALM      29.98F
SOUTH HAVEN    CLEAR     64  64  99 CALM      29.99S
$$
MIZ016>042-231000-
NORTHERN LOWER MICHIGAN

CITY           SKY/WX    TMP DP  RH WIND       PRES   REMARKS
ALPENA         PTCLDY    60  57  89 CALM      29.95S
BEAVER ISLAND  CLEAR     61  61  99 CALM      29.96R
BELLAIRE       CLEAR     60  59  96 CALM      29.97S FOG
CADILLAC       FOG       62  60  92 CALM      30.00S VSB 3/4
CHARLEVOIX     PTCLDY    65  64  97 CALM      29.99S
FRANKFORT      CLOUDY    68  66  92 CALM      29.97R
GAYLORD        CLEAR     62  57  83 CALM      29.99S
GRAYLING       CLEAR     61  58  90 CALM      29.99S
HARBOR SPRINGS CLEAR     64  63  96 CALM      29.96S
HOUGHTON LAKE  CLEAR     60  58  92 CALM      29.99F FOG
MANISTEE       CLEAR     62  62 100 E3        29.97S FOG
OSCODA         CLEAR     68  58  70 CALM      29.94S
PELLSTON       CLEAR     59  57  93 CALM      29.96S
ROGERS CITY    PTCLDY    68  60  76 W5        29.95F
TRAVERSE CITY  PTCLDY    69  66  90 CALM      29.95R
$$
MIZ007>008-015-231000-
EASTERN UPPER MICHIGAN

CITY           SKY/WX    TMP DP  RH WIND       PRES   REMARKS
KINROSS        PTCLDY    61  59  93 W6        29.95S
MACKINAC ISLAN PTCLDY    67  67 100 W8        29.95S
NEWBERRY       PTCLDY    60  59  97 CALM      29.95S
S. S. MARIE    CLEAR     62  58  86 W5        29.93S
MUNISING         N/A     61  59  93 S8        29.95S
$$
MIZ004>006-011>014-085-231000-
CENTRAL UPPER MICHIGAN

CITY           SKY/WX    TMP DP  RH WIND       PRES   REMARKS
MANISTIQUE     CLEAR     62  60  94 CALM      29.95S
ESCANABA       CLEAR     63  57  82 NW5       29.95S
MENOMINEE      PTCLDY    67  64  90 NW5       29.98R
SAWYER-GWINN   CLEAR     60  56  85 CALM      29.99S
$$
MIZ001>003-009>011-084-231000-
WESTERN UPPER MICHIGAN

CITY           SKY/WX    TMP DP  RH WIND       PRES   REMARKS
IRON MOUNTAIN  CLEAR     60  55  83 CALM      29.99S
HOUGHTON       CLEAR     65  55  70 NW9       29.97R
COPPER HARBOR    N/A     69  58  67 N6        29.95R
IRONWOOD       CLEAR     57  57 100 CALM      30.01S
$$

ABBREVIATIONS USED IN REMARKS
   TC - TEMPERATURE IN CELSIUS
  WCI - WIND CHILL INDEX
   HX - HEAT INDEX
  VSB - VISIBILITY





USA.gov is the U.S. government's official web portal to all federal, state and local government web resources and services.